DLH9E EDDH-ESGG

Flight info

Callsign DLH9E
Flight time 0h 52m
Altitude 35000
Route SOKWO1G SOKWO T814 EXNEL M105 AMRAK DCT GOTEX N873 LOBBI
Aircraft A20N/M-SDE2E3FGHIRWXY/LB1

Departure

Time 2026-05-06 17:52
Airport Hamburg Helmut Schmidt Airport (EDDH)

Arrival

Time 2026-05-06 18:44
Airport Göteborg Landvetter Airport (ESGG)
Time Latitude Longitude Altitude Speed Heading
2026-05-06 17:10 53.62808 10.00245 41 ft 0 kts 62°
2026-05-06 17:47 53.62803 10.00229 48 ft 6 kts 62°
2026-05-06 17:47 53.62785 10.00174 46 ft 4 kts 67°
2026-05-06 17:47 53.62783 10.00135 47 ft 3 kts 119°
2026-05-06 17:48 53.62790 10.00120 49 ft 0 kts 145°
2026-05-06 17:49 53.62775 10.00132 46 ft 7 kts 153°
2026-05-06 17:49 53.62718 10.00183 50 ft 11 kts 153°
2026-05-06 17:49 53.62644 10.00246 50 ft 10 kts 153°
2026-05-06 17:49 53.62585 10.00249 50 ft 9 kts 224°
2026-05-06 17:50 53.62567 10.00199 49 ft 0 kts 241°
2026-05-06 17:50 53.62565 10.00191 49 ft 3 kts 243°
2026-05-06 17:51 53.62540 10.00096 47 ft 14 kts 262°
2026-05-06 17:51 53.62578 9.99990 46 ft 0 kts 330°
2026-05-06 17:51 53.62592 9.99977 47 ft 4 kts 334°
2026-05-06 17:51 53.62765 9.99834 48 ft 62 kts 334°
2026-05-06 17:52 53.63345 9.99327 51 ft 122 kts 332°
2026-05-06 17:52 53.64236 9.98544 158 ft 155 kts 334°
2026-05-06 17:52 53.65128 9.97683 709 ft 152 kts 333°
2026-05-06 17:52 53.66078 9.96766 1197 ft 162 kts 336°
2026-05-06 17:53 53.67105 9.95879 1741 ft 170 kts 339°
2026-05-06 17:53 53.68229 9.95009 2161 ft 183 kts 341°
2026-05-06 17:53 53.69361 9.94219 2934 ft 178 kts 349°
2026-05-06 17:53 53.70611 9.94014 3499 ft 186 kts
2026-05-06 17:54 53.71968 9.94244 4055 ft 206 kts 10°
2026-05-06 17:54 53.73402 9.94735 4842 ft 212 kts 23°
2026-05-06 17:54 53.74702 9.95911 5800 ft 213 kts 37°
2026-05-06 17:54 53.75524 9.96893 6291 ft 225 kts 36°
2026-05-06 17:55 53.76891 9.98445 6822 ft 248 kts 34°
2026-05-06 17:55 53.78895 10.00639 7721 ft 266 kts 33°
2026-05-06 17:55 53.80458 10.02336 8707 ft 269 kts 32°
2026-05-06 17:55 53.82074 10.04094 9143 ft 279 kts 32°
2026-05-06 17:56 53.83693 10.05860 9405 ft 276 kts 32°
2026-05-06 17:56 53.84785 10.07054 9531 ft 276 kts 32°
2026-05-06 17:56 53.86403 10.08826 9737 ft 279 kts 32°
2026-05-06 17:56 53.88072 10.10597 10177 ft 291 kts 26°
2026-05-06 17:57 53.90094 10.11518 10480 ft 316 kts
2026-05-06 17:57 53.92329 10.11004 10933 ft 332 kts 345°
2026-05-06 17:57 53.94592 10.09991 11685 ft 340 kts 345°
2026-05-06 17:57 53.96908 10.08973 12469 ft 347 kts 345°
2026-05-06 17:58 53.99241 10.07966 13254 ft 353 kts 345°
2026-05-06 17:58 54.01675 10.06928 14019 ft 359 kts 345°
2026-05-06 17:58 54.04108 10.05897 14799 ft 362 kts 345°
2026-05-06 17:58 54.06539 10.04874 15530 ft 367 kts 345°
2026-05-06 17:59 54.09021 10.03769 16268 ft 370 kts 339°
2026-05-06 17:59 54.11343 10.01867 16977 ft 372 kts 325°
2026-05-06 17:59 54.13335 9.99049 17672 ft 374 kts 311°
2026-05-06 17:59 54.15078 9.95728 18350 ft 378 kts 310°
2026-05-06 18:00 54.16837 9.92372 18994 ft 381 kts 310°
2026-05-06 18:00 54.18620 9.88978 19640 ft 384 kts 310°
2026-05-06 18:00 54.20415 9.85559 20276 ft 387 kts 310°
2026-05-06 18:00 54.22195 9.82165 20916 ft 389 kts 310°
2026-05-06 18:01 54.24054 9.78772 21559 ft 393 kts 314°
2026-05-06 18:01 54.26166 9.75758 22182 ft 398 kts 322°
2026-05-06 18:01 54.28446 9.72948 22819 ft 402 kts 321°
2026-05-06 18:01 54.30714 9.70123 23439 ft 404 kts 321°
2026-05-06 18:02 54.32974 9.67293 23952 ft 407 kts 321°
2026-05-06 18:02 54.35391 9.64660 24431 ft 414 kts 332°
2026-05-06 18:02 54.38129 9.63118 24904 ft 422 kts 347°
2026-05-06 18:02 54.41095 9.62807 25394 ft 429 kts
2026-05-06 18:03 54.44029 9.63556 25840 ft 434 kts
2026-05-06 18:03 54.47023 9.64603 26289 ft 438 kts 10°
2026-05-06 18:03 54.50005 9.65683 26687 ft 441 kts 10°
2026-05-06 18:03 54.53006 9.66740 26837 ft 442 kts
2026-05-06 18:04 54.56064 9.67763 26903 ft 443 kts
2026-05-06 18:04 54.59098 9.68735 26911 ft 443 kts
2026-05-06 18:04 54.62092 9.69681 26911 ft 443 kts
2026-05-06 18:04 54.65127 9.70639 26912 ft 444 kts
2026-05-06 18:05 54.68169 9.71516 26912 ft 443 kts
2026-05-06 18:05 54.71233 9.72282 26924 ft 443 kts
2026-05-06 18:05 54.74295 9.73026 26930 ft 444 kts
2026-05-06 18:05 54.77354 9.73780 26932 ft 445 kts
2026-05-06 18:06 54.80416 9.74552 26934 ft 445 kts
2026-05-06 18:06 54.83442 9.75714 26934 ft 447 kts 15°
2026-05-06 18:06 54.86391 9.77454 26940 ft 448 kts 18°
2026-05-06 18:06 54.89342 9.79237 26938 ft 448 kts 17°
2026-05-06 18:07 54.92255 9.80980 26939 ft 449 kts 17°
2026-05-06 18:07 54.95210 9.82749 26941 ft 449 kts 17°
2026-05-06 18:07 54.98168 9.84525 26941 ft 450 kts 17°
2026-05-06 18:07 55.01126 9.86309 26940 ft 450 kts 17°
2026-05-06 18:08 55.04087 9.88099 26938 ft 450 kts 17°
2026-05-06 18:08 55.07048 9.89894 26937 ft 450 kts 17°
2026-05-06 18:08 55.10009 9.91692 26938 ft 451 kts 17°
2026-05-06 18:08 55.12979 9.93499 26936 ft 451 kts 17°
2026-05-06 18:09 55.15943 9.95305 26934 ft 451 kts 17°
2026-05-06 18:09 55.18906 9.97112 26933 ft 451 kts 17°
2026-05-06 18:09 55.21878 9.98928 26934 ft 452 kts 17°
2026-05-06 18:09 55.24850 10.00747 26933 ft 452 kts 17°
2026-05-06 18:10 55.27821 10.02568 26932 ft 452 kts 17°
2026-05-06 18:10 55.30746 10.04364 26840 ft 450 kts 17°
2026-05-06 18:10 55.33697 10.06179 26432 ft 448 kts 17°
2026-05-06 18:10 55.36628 10.07985 25905 ft 445 kts 17°
2026-05-06 18:11 55.39541 10.09783 25344 ft 441 kts 17°
2026-05-06 18:11 55.42417 10.11562 25065 ft 435 kts 17°
2026-05-06 18:11 55.45284 10.13335 24955 ft 440 kts 17°
2026-05-06 18:11 55.48173 10.15124 24943 ft 441 kts 17°
2026-05-06 18:12 55.51072 10.16923 24939 ft 441 kts 17°
2026-05-06 18:12 55.53968 10.18723 24938 ft 441 kts 17°
2026-05-06 18:12 55.56861 10.20524 24939 ft 441 kts 17°
2026-05-06 18:12 55.59761 10.22333 24937 ft 442 kts 17°
2026-05-06 18:13 55.62634 10.24128 24941 ft 441 kts 17°
2026-05-06 18:13 55.65534 10.25943 24941 ft 442 kts 17°
2026-05-06 18:13 55.68431 10.27758 24940 ft 442 kts 17°
2026-05-06 18:13 55.71328 10.29577 24941 ft 442 kts 17°
2026-05-06 18:14 55.74227 10.31399 24943 ft 442 kts 17°
2026-05-06 18:14 55.77126 10.33224 24941 ft 442 kts 17°
2026-05-06 18:14 55.80030 10.35056 24941 ft 442 kts 17°
2026-05-06 18:14 55.82932 10.36888 24942 ft 442 kts 17°
2026-05-06 18:15 55.85831 10.38723 24941 ft 443 kts 17°
2026-05-06 18:15 55.88735 10.40563 24943 ft 443 kts 17°
2026-05-06 18:15 55.91636 10.42404 24939 ft 442 kts 17°
2026-05-06 18:15 55.94499 10.44225 24767 ft 440 kts 17°
2026-05-06 18:16 55.97373 10.46056 24354 ft 437 kts 17°
2026-05-06 18:16 56.00224 10.47875 23862 ft 434 kts 17°
2026-05-06 18:16 56.03053 10.49683 23312 ft 430 kts 16°
2026-05-06 18:16 56.05857 10.51476 22742 ft 425 kts 16°
2026-05-06 18:17 56.08626 10.53251 22181 ft 420 kts 17°
2026-05-06 18:17 56.11368 10.55010 21625 ft 416 kts 16°
2026-05-06 18:17 56.14082 10.56753 21070 ft 411 kts 17°
2026-05-06 18:17 56.16759 10.58475 20534 ft 407 kts 17°
2026-05-06 18:18 56.19411 10.60183 20018 ft 402 kts 17°
2026-05-06 18:18 56.22034 10.61876 19505 ft 398 kts 17°
2026-05-06 18:18 56.24627 10.63551 19002 ft 394 kts 17°
2026-05-06 18:18 56.27186 10.65207 18581 ft 388 kts 17°
2026-05-06 18:19 56.29721 10.66849 18221 ft 387 kts 17°
2026-05-06 18:19 56.32252 10.68490 17812 ft 386 kts 17°
2026-05-06 18:19 56.34762 10.70120 17405 ft 381 kts 17°
2026-05-06 18:19 56.37243 10.71735 17003 ft 378 kts 17°
2026-05-06 18:20 56.39706 10.73339 16610 ft 375 kts 17°
2026-05-06 18:20 56.42152 10.74935 16215 ft 372 kts 17°
2026-05-06 18:20 56.44578 10.76520 15832 ft 369 kts 17°
2026-05-06 18:20 56.46954 10.78075 15450 ft 366 kts 17°
2026-05-06 18:21 56.49341 10.79638 15073 ft 363 kts 18°
2026-05-06 18:21 56.51709 10.81191 14699 ft 361 kts 18°
2026-05-06 18:21 56.54068 10.82741 14313 ft 358 kts 18°
2026-05-06 18:21 56.56400 10.84274 13962 ft 356 kts 18°
2026-05-06 18:22 56.58718 10.85801 13579 ft 353 kts 18°
2026-05-06 18:22 56.61019 10.87318 13178 ft 350 kts 18°
2026-05-06 18:22 56.63295 10.88822 12993 ft 347 kts 18°
2026-05-06 18:22 56.65570 10.90327 12956 ft 350 kts 18°
2026-05-06 18:23 56.67855 10.91841 12957 ft 349 kts 18°
2026-05-06 18:23 56.70145 10.93359 12956 ft 349 kts 18°
2026-05-06 18:23 56.72431 10.94878 12956 ft 349 kts 18°
2026-05-06 18:23 56.74712 10.96395 12953 ft 349 kts 18°
2026-05-06 18:24 56.76967 10.97895 12955 ft 349 kts 18°
2026-05-06 18:24 56.79262 10.99425 12957 ft 349 kts 18°
2026-05-06 18:24 56.81553 11.00955 12960 ft 349 kts 18°
2026-05-06 18:24 56.83830 11.02477 12957 ft 349 kts 18°
2026-05-06 18:25 56.86098 11.03995 12957 ft 349 kts 18°
2026-05-06 18:25 56.88394 11.05533 12956 ft 349 kts 18°
2026-05-06 18:25 56.90672 11.07062 12961 ft 349 kts 18°
2026-05-06 18:25 56.92962 11.08600 12959 ft 349 kts 18°
2026-05-06 18:26 56.95221 11.10121 12958 ft 349 kts 18°
2026-05-06 18:26 56.97518 11.11669 12959 ft 349 kts 18°
2026-05-06 18:26 56.99804 11.13211 12957 ft 349 kts 18°
2026-05-06 18:26 57.02083 11.14753 12960 ft 349 kts 18°
2026-05-06 18:27 57.04364 11.16296 12959 ft 349 kts 18°
2026-05-06 18:27 57.06644 11.17841 12957 ft 350 kts 18°
2026-05-06 18:27 57.08927 11.19389 12958 ft 350 kts 18°
2026-05-06 18:27 57.11210 11.20939 12960 ft 350 kts 18°
2026-05-06 18:28 57.13494 11.22491 12957 ft 350 kts 18°
2026-05-06 18:28 57.15778 11.24044 12960 ft 350 kts 18°
2026-05-06 18:28 57.18033 11.25585 12956 ft 350 kts 19°
2026-05-06 18:28 57.20209 11.27629 12959 ft 352 kts 32°
2026-05-06 18:29 57.22118 11.30471 12943 ft 353 kts 44°
2026-05-06 18:29 57.23786 11.33787 12694 ft 352 kts 46°
2026-05-06 18:29 57.25443 11.37102 12262 ft 349 kts 46°
2026-05-06 18:29 57.27094 11.40393 11733 ft 347 kts 46°
2026-05-06 18:30 57.28729 11.43652 11228 ft 345 kts 46°
2026-05-06 18:30 57.30350 11.46885 10761 ft 341 kts 46°
2026-05-06 18:30 57.31952 11.50089 10325 ft 336 kts 46°
2026-05-06 18:30 57.33506 11.53199 10193 ft 322 kts 47°
2026-05-06 18:31 57.34978 11.56145 10060 ft 309 kts 47°
2026-05-06 18:31 57.36408 11.59009 9943 ft 296 kts 47°
2026-05-06 18:31 57.37788 11.61776 9677 ft 289 kts 47°
2026-05-06 18:31 57.39154 11.64518 9219 ft 289 kts 47°
2026-05-06 18:32 57.40516 11.67256 8796 ft 288 kts 47°
2026-05-06 18:32 57.41871 11.69981 8385 ft 287 kts 48°
2026-05-06 18:32 57.43219 11.72696 7983 ft 285 kts 48°
2026-05-06 18:32 57.44560 11.75404 7589 ft 284 kts 48°
2026-05-06 18:33 57.45893 11.78096 7209 ft 282 kts 49°
2026-05-06 18:33 57.47209 11.80761 6999 ft 276 kts 49°
2026-05-06 18:33 57.48525 11.83429 6958 ft 283 kts 49°
2026-05-06 18:33 57.49848 11.86112 6953 ft 281 kts 49°
2026-05-06 18:34 57.51168 11.88794 6943 ft 281 kts 49°
2026-05-06 18:34 57.52488 11.91478 6942 ft 281 kts 49°
2026-05-06 18:34 57.53791 11.94129 6945 ft 281 kts 49°
2026-05-06 18:34 57.55148 11.96750 6940 ft 281 kts 42°
2026-05-06 18:35 57.56743 11.98886 6942 ft 282 kts 30°
2026-05-06 18:35 57.58489 12.00574 6939 ft 282 kts 28°
2026-05-06 18:35 57.60233 12.02262 6928 ft 282 kts 28°
2026-05-06 18:35 57.61962 12.03951 6743 ft 280 kts 28°
2026-05-06 18:36 57.63687 12.05642 6401 ft 280 kts 28°
2026-05-06 18:36 57.65406 12.07331 6028 ft 278 kts 28°
2026-05-06 18:36 57.67117 12.09014 5640 ft 277 kts 28°
2026-05-06 18:36 57.68821 12.10687 5260 ft 276 kts 28°
2026-05-06 18:37 57.70503 12.12338 5042 ft 269 kts 28°
2026-05-06 18:37 57.71612 12.13429 5004 ft 275 kts 28°
2026-05-06 18:37 57.73876 12.15657 4927 ft 273 kts 28°
2026-05-06 18:37 57.75560 12.17317 4630 ft 272 kts 28°
2026-05-06 18:38 57.77232 12.18967 4281 ft 271 kts 28°
2026-05-06 18:38 57.78895 12.20612 3927 ft 269 kts 27°
2026-05-06 18:38 57.80515 12.22216 3810 ft 258 kts 27°
2026-05-06 18:38 57.82066 12.23753 3684 ft 248 kts 27°
2026-05-06 18:39 57.83579 12.25252 3444 ft 244 kts 27°
2026-05-06 18:39 57.85060 12.26720 3170 ft 242 kts 27°
2026-05-06 18:39 57.86342 12.28709 2885 ft 240 kts 55°
2026-05-06 18:40 57.87010 12.34700 2513 ft 239 kts 86°
2026-05-06 18:40 57.86879 12.37822 2500 ft 242 kts 108°
2026-05-06 18:40 57.85967 12.40450 2497 ft 244 kts 140°
2026-05-06 18:40 57.84454 12.41843 2495 ft 244 kts 171°
2026-05-06 18:41 57.82772 12.42058 2496 ft 242 kts 185°
2026-05-06 18:41 57.81140 12.41384 2501 ft 241 kts 201°
2026-05-06 18:41 57.79596 12.40159 2501 ft 241 kts 207°
2026-05-06 18:41 57.78098 12.38767 2504 ft 240 kts 207°
2026-05-06 18:42 57.77102 12.37863 2502 ft 240 kts 207°
2026-05-06 18:42 57.75602 12.36484 2382 ft 241 kts 207°
2026-05-06 18:42 57.73623 12.34675 1905 ft 231 kts 208°
2026-05-06 18:42 57.72231 12.33403 1584 ft 214 kts 207°
2026-05-06 18:43 57.70961 12.32246 1318 ft 191 kts 208°
2026-05-06 18:43 57.69827 12.31211 1040 ft 171 kts 208°
2026-05-06 18:43 57.69131 12.30577 885 ft 158 kts 209°
2026-05-06 18:43 57.68206 12.29737 692 ft 142 kts 208°
2026-05-06 18:44 57.67314 12.28925 519 ft 141 kts 209°
2026-05-06 18:44 57.66621 12.28279 505 ft 67 kts 206°
2026-05-06 18:44 57.66293 12.27990 499 ft 42 kts 203°
2026-05-06 18:44 57.66156 12.27958 492 ft 13 kts 151°
2026-05-06 18:45 57.66118 12.28047 499 ft 5 kts 114°
2026-05-06 18:45 57.66104 12.28121 499 ft 8 kts 102°
2026-05-06 18:45 57.66136 12.28196 500 ft 9 kts 31°
2026-05-06 18:45 57.66145 12.28204 500 ft 0 kts 24°
2026-05-06 18:46 57.66176 12.28230 501 ft 9 kts 24°
2026-05-06 18:46 57.66246 12.28291 501 ft 13 kts 26°
2026-05-06 18:47 57.66334 12.28372 502 ft 15 kts 26°
2026-05-06 18:47 57.66434 12.28464 503 ft 16 kts 26°
2026-05-06 18:47 57.66538 12.28558 504 ft 15 kts 26°
2026-05-06 18:47 57.66617 12.28629 505 ft 9 kts 25°
2026-05-06 18:48 57.66620 12.28632 505 ft 0 kts 25°
2026-05-06 18:48 57.66640 12.28650 505 ft 8 kts 26°
2026-05-06 18:48 57.66665 12.28752 506 ft 11 kts 101°
2026-05-06 18:48 57.66626 12.28903 506 ft 15 kts 118°
2026-05-06 18:49 57.66625 12.29026 506 ft 6 kts 28°
2026-05-06 18:49 57.66673 12.29072 507 ft 9 kts 25°
2026-05-06 18:49 57.66737 12.29132 507 ft 12 kts 26°
2026-05-06 18:49 57.66753 12.29146 508 ft 0 kts 26°
2026-05-06 18:50 57.66753 12.29150 508 ft 0 kts 41°
2026-05-06 18:50 57.66753 12.29168 508 ft 3 kts 95°
2026-05-06 18:50 57.66732 12.29254 508 ft 5 kts 114°
2026-05-06 18:51 57.66730 12.29262 508 ft 0 kts 114°